Home   Weather   Ostrava   Past weeks

Flag for Czech Republic Past Weather in Ostrava, Czech Republic — Yesterday and Last 2 Weeks

Now
28 °F

Low clouds.


Feels Like: 23 °F
Forecast: 18 / 27 °F
Wind: 5 mph from North

Location: Ostrava / Mosnov

Current Time: Jan 17, 2017 at 4:08:03 am

Latest Report: Jan 17, 2017 at 3:00 am


Visibility: 2 mi

Pressure: 30.37 "Hg

Humidity: 96%

Dew Point: 27 °F

Location of OstravaLocation

Past Weather in Ostrava — Graph

°F

Ostrava Temperature Yesterday

Maximum temperature yesterday: 29 °F (at 12:00 am)
Minimum temperature yesterday: 19 °F (at 10:00 pm)
Average temperature yesterday: 25 °F

High & Low Weather Summary for the Past Weeks

 TemperatureHumidityPressure
High40 °F (Jan 13, 2:00 pm)98% (Jan 14, 7:00 pm)30.73 "Hg (Jan 14, 7:00 pm)
Low-1 °F (Jan 9, 8:00 am)46% (Jan 11, 3:00 pm)29.38 "Hg (Jan 13, 2:00 pm)
Average22 °F79%30.11 "Hg
* Reported Jan 2 2:00 am — Jan 17 2:00 am, Ostrava, Weather by CustomWeather, © 2017

Note: Actual official high and low records may vary slightly from our data, if they occured in-between our weather recording intervals... More about our weather records

Advertising

Ostrava Weather History for the Previous 24 Hours

Scroll right to see more
 ConditionsComfort  
Time TempWeatherWind HumidityBarometerVisibility
2:00 am
Tue, Jan 17
27 °FLight snow. Low clouds.5 mph96%30.37 "Hg2 mi
1:00 am26 °FFog.2 mph94%30.36 "Hg2 mi
12:00 am22 °FFog.N/A91%30.35 "Hg3 mi
11:00 pm
Mon, Jan 16
22 °FFog.N/A91%30.35 "Hg3 mi
10:00 pm19 °FFog.N/A92%30.34 "Hg5 mi
9:00 pm20 °FOvercast.N/A93%30.32 "Hg6 mi
8:00 pm20 °FPassing clouds.1 mph90%30.30 "Hg6 mi
7:00 pm23 °FOvercast.1 mph91%30.28 "Hg7 mi
6:00 pm24 °FPassing clouds.N/A87%30.26 "Hg7 mi
5:00 pm26 °FPassing clouds.1 mph86%30.24 "Hg7 mi
4:00 pm28 °FPartly sunny.3 mph81%30.22 "Hg8 mi
3:00 pm29 °FScattered clouds.3 mph75%30.20 "Hg11 mi
2:00 pm29 °FPassing clouds.5 mph77%30.20 "Hg11 mi
1:00 pm29 °FScattered clouds.7 mph80%30.19 "Hg9 mi
12:00 pm27 °FPartly sunny.7 mph84%30.20 "Hg7 mi
11:00 am27 °FOvercast.6 mph85%30.20 "Hg6 mi
10:00 am26 °FPartly sunny.5 mph88%30.19 "Hg7 mi
9:00 am25 °FPartly sunny.5 mph89%30.18 "Hg7 mi
8:00 am21 °FScattered clouds.3 mph93%30.18 "Hg7 mi
7:00 am21 °FPassing clouds.5 mph91%30.16 "Hg9 mi
6:00 am21 °FPassing clouds.5 mph93%30.15 "Hg9 mi
5:00 am23 °FPassing clouds.5 mph91%30.13 "Hg9 mi
4:00 am26 °FOvercast.6 mph87%30.12 "Hg9 mi
Weather by CustomWeather, © 2017

See weather overviewHow to use our weather pages